When you browse on this site, cookies collect data to enhance your experience and personalize the content and advertising you see.
Visit our Privacy Policy to learn more. By continuing to use the site, you agree to this use of cookies and data.
  • In Lithuania
  • List of Countries
  • For 7 days
  • Water Temperature
  • Satellite Maps
  • Weather Map
  • Weather Widgets
  • user-avatar
    Login

    Hourly Weather Malanje

    Today, 21 May, Tuesday

    Time Temperature Precipitation Wind Pressure Humidity
    00:00 +18°C° 0 mm 0 mps 665 mmHg 57%
    01:00 +19°C° 0 mm 1 mps 665 mmHg 64%
    02:00 +19°C° 0 mm 1 mps 665 mmHg 64%
    03:00 +19°C° 0 mm 1 mps 664 mmHg 65%
    04:00 +18°C° 0 mm 1 mps 664 mmHg 66%
    05:00 +18°C° 0 mm 1 mps 665 mmHg 65%
    06:00 +18°C° 0 mm 1 mps 665 mmHg 63%
    07:00 +19°C° 0 mm 1 mps 666 mmHg 62%
    08:00 +22°C° 0 mm 1 mps 666 mmHg 55%
    09:00 +25°C° 0 mm 1 mps 667 mmHg 49%
    10:00 +28°C° 0 mm 2 mps 667 mmHg 43%
    11:00 +29°C° 0 mm 2 mps 667 mmHg 40%
    12:00 +31°C° 0 mm 2 mps 667 mmHg 37%
    13:00 +32°C° 0 mm 2 mps 666 mmHg 36%
    14:00 +32°C° 0 mm 2 mps 666 mmHg 37%
    15:00 +31°C° 0 mm 1 mps 666 mmHg 38%
    16:00 +31°C° 0 mm 1 mps 665 mmHg 39%
    17:00 +29°C° 0 mm 1 mps 665 mmHg 45%
    18:00 +25°C° 0 mm 0 mps 665 mmHg 50%
    19:00 +22°C° 0 mm 0 mps 664 mmHg 56%
    20:00 +22°C° 0 mm 0 mps 665 mmHg 56%
    21:00 +22°C° 0 mm 0 mps 665 mmHg 56%
    22:00 +22°C° 0 mm 0 mps 666 mmHg 56%
    23:00 +24°C° 0 mm 1 mps 666 mmHg 57%

    Tomorrow, 22 May, Wednesday

    Time Temperature Precipitation Wind Pressure Humidity
    00:00 +24°C° 0 mm 1 mps 666 mmHg 59%
    01:00 +24°C° 0 mm 1 mps 666 mmHg 61%
    02:00 +22°C° 0 mm 1 mps 665 mmHg 69%
    03:00 +21°C° 0 mm 1 mps 665 mmHg 77%
    04:00 +20°C° 0 mm 1 mps 664 mmHg 85%
    05:00 +20°C° 0 mm 1 mps 665 mmHg 84%
    06:00 +19°C° 0 mm 0 mps 665 mmHg 83%
    07:00 +19°C° 0 mm 0 mps 666 mmHg 82%
    08:00 +24°C° 0 mm 1 mps 666 mmHg 70%
    09:00 +27°C° 0 mm 1 mps 667 mmHg 59%
    10:00 +29°C° 0 mm 1 mps 668 mmHg 47%
    11:00 +30°C° 0 mm 1 mps 668 mmHg 43%
    12:00 +31°C° 0 mm 1 mps 667 mmHg 39%
    13:00 +32°C° 0 mm 2 mps 667 mmHg 35%
    14:00 +32°C° 0 mm 1 mps 666 mmHg 36%
    15:00 +32°C° 0 mm 1 mps 666 mmHg 36%
    16:00 +29°C° 0 mm 0 mps 665 mmHg 37%
    17:00 +27°C° 0 mm 0 mps 665 mmHg 41%
    18:00 +25°C° 0 mm 0 mps 665 mmHg 45%
    19:00 +23°C° 0 mm 0 mps 665 mmHg 50%
    20:00 +23°C° 0 mm 0 mps 666 mmHg 51%
    21:00 +23°C° 0 mm 0 mps 666 mmHg 52%
    22:00 +25°C° 0 mm 1 mps 667 mmHg 53%
    23:00 +24°C° 0.1 mm 1 mps 666 mmHg 63%

    Day after tomorrow, 23 May, Thursday

    Time Temperature Precipitation Wind Pressure Humidity
    00:00 +23°C° 0.1 mm 1 mps 666 mmHg 73%
    01:00 +20°C° 0.1 mm 2 mps 665 mmHg 83%
    02:00 +21°C° 0 mm 1 mps 665 mmHg 87%
    03:00 +20°C° 0 mm 1 mps 665 mmHg 91%
    04:00 +18°C° 0 mm 0 mps 664 mmHg 95%
    05:00 +18°C° 0 mm 0 mps 665 mmHg 93%
    06:00 +19°C° 0 mm 0 mps 665 mmHg 92%
    07:00 +19°C° 0 mm 0 mps 665 mmHg 90%
    08:00 +24°C° 0 mm 1 mps 666 mmHg 76%
    09:00 +26°C° 0 mm 1 mps 667 mmHg 62%
    10:00 +29°C° 0 mm 1 mps 668 mmHg 48%
    11:00 +30°C° 0 mm 2 mps 667 mmHg 44%
    12:00 +31°C° 0 mm 2 mps 667 mmHg 40%
    13:00 +32°C° 0 mm 2 mps 666 mmHg 37%
    14:00 +32°C° 0 mm 2 mps 666 mmHg 37%
    15:00 +31°C° 0 mm 1 mps 665 mmHg 38%
    16:00 +31°C° 0 mm 1 mps 665 mmHg 39%
    17:00 +29°C° 0 mm 1 mps 665 mmHg 44%
    18:00 +27°C° 0 mm 1 mps 665 mmHg 49%
    19:00 +25°C° 0 mm 1 mps 665 mmHg 55%
    20:00 +24°C° 0 mm 1 mps 665 mmHg 57%
    21:00 +22°C° 0 mm 0 mps 665 mmHg 58%
    22:00 +21°C° 0 mm 0 mps 666 mmHg 60%
    23:00 +23°C° 0 mm 1 mps 666 mmHg 62%

    24 May, Friday

    Time Temperature Precipitation Wind Pressure Humidity
    00:00 +23°C° 0 mm 1 mps 665 mmHg 65%
    01:00 +22°C° 0 mm 1 mps 665 mmHg 67%
    02:00 +21°C° 0 mm 1 mps 665 mmHg 73%
    03:00 +19°C° 0 mm 0 mps 664 mmHg 80%
    04:00 +18°C° 0 mm 0 mps 664 mmHg 86%
    05:00 +18°C° 0 mm 0 mps 665 mmHg 84%
    06:00 +19°C° 0 mm 0 mps 665 mmHg 83%
    07:00 +19°C° 0 mm 0 mps 666 mmHg 81%
    08:00 +24°C° 0 mm 1 mps 667 mmHg 69%
    09:00 +28°C° 0 mm 1 mps 667 mmHg 58%
    10:00 +31°C° 0 mm 1 mps 668 mmHg 46%
    11:00 +31°C° 0 mm 1 mps 667 mmHg 43%
    12:00 +31°C° 0 mm 2 mps 667 mmHg 39%
    13:00 +32°C° 0 mm 2 mps 666 mmHg 36%
    14:00 +32°C° 0 mm 2 mps 666 mmHg 37%
    15:00 +32°C° 0 mm 1 mps 665 mmHg 37%
    16:00 +32°C° 0 mm 1 mps 665 mmHg 37%
    17:00 +30°C° 0 mm 1 mps 665 mmHg 40%
    18:00 +27°C° 0 mm 0 mps 665 mmHg 43%
    19:00 +25°C° 0 mm 0 mps 666 mmHg 46%
    20:00 +25°C° 0 mm 0 mps 666 mmHg 47%
    21:00 +24°C° 0 mm 0 mps 667 mmHg 48%
    22:00 +24°C° 0 mm 0 mps 667 mmHg 49%
    23:00 +25°C° 0 mm 1 mps 667 mmHg 55%

    25 May, Saturday

    Time Temperature Precipitation Wind Pressure Humidity
    00:00 +25°C° 0 mm 1 mps 666 mmHg 60%
    01:00 +24°C° 0 mm 1 mps 666 mmHg 65%
    02:00 +24°C° 0.1 mm 1 mps 666 mmHg 68%
    03:00 +23°C° 0.1 mm 1 mps 665 mmHg 70%
    04:00 +21°C° 0.1 mm 0 mps 665 mmHg 73%
    05:00 +21°C° 0 mm 0 mps 666 mmHg 73%
    06:00 +21°C° 0 mm 0 mps 666 mmHg 72%
    07:00 +21°C° 0 mm 0 mps 667 mmHg 72%
    08:00 +25°C° 0 mm 1 mps 667 mmHg 61%
    09:00 +27°C° 0 mm 1 mps 668 mmHg 50%
    10:00 +30°C° 0 mm 2 mps 668 mmHg 39%
    11:00 +31°C° 0 mm 2 mps 667 mmHg 36%
    12:00 +31°C° 0 mm 3 mps 667 mmHg 32%
    13:00 +33°C° 0 mm 3 mps 666 mmHg 29%
    14:00 +33°C° 0 mm 3 mps 666 mmHg 30%
    15:00 +32°C° 0 mm 2 mps 665 mmHg 31%
    16:00 +32°C° 0 mm 2 mps 665 mmHg 32%
    17:00 +29°C° 0 mm 1 mps 665 mmHg 36%
    18:00 +27°C° 0 mm 1 mps 665 mmHg 40%
    19:00 +25°C° 0 mm 1 mps 665 mmHg 44%
    20:00 +24°C° 0 mm 1 mps 665 mmHg 45%
    21:00 +24°C° 0 mm 1 mps 666 mmHg 45%
    22:00 +23°C° 0 mm 1 mps 666 mmHg 45%
    23:00 +22°C° 0 mm 1 mps 665 mmHg 47%

    26 May, Sunday

    Time Temperature Precipitation Wind Pressure Humidity
    00:00 +22°C° 0 mm 1 mps 665 mmHg 48%
    01:00 +21°C° 0 mm 1 mps 665 mmHg 49%
    02:00 +21°C° 0 mm 1 mps 665 mmHg 51%
    03:00 +20°C° 0 mm 1 mps 665 mmHg 54%
    04:00 +19°C° 0 mm 1 mps 664 mmHg 56%
    05:00 +19°C° 0 mm 1 mps 665 mmHg 57%
    06:00 +19°C° 0 mm 1 mps 665 mmHg 58%
    07:00 +19°C° 0 mm 1 mps 666 mmHg 59%
    08:00 +21°C° 0 mm 2 mps 666 mmHg 51%
    09:00 +25°C° 0 mm 3 mps 667 mmHg 43%
    10:00 +28°C° 0 mm 3 mps 668 mmHg 34%
    11:00 +29°C° 0 mm 3 mps 667 mmHg 31%
    12:00 +31°C° 0 mm 3 mps 666 mmHg 29%
    13:00 +32°C° 0 mm 2 mps 666 mmHg 26%
    14:00 +32°C° 0 mm 2 mps 666 mmHg 27%
    15:00 +32°C° 0 mm 1 mps 665 mmHg 27%
    16:00 +31°C° 0 mm 1 mps 665 mmHg 28%
    17:00 +29°C° 0 mm 1 mps 665 mmHg 32%
    18:00 +26°C° 0 mm 1 mps 665 mmHg 37%
    19:00 +22°C° 0 mm 0 mps 665 mmHg 41%
    20:00 +23°C° 0 mm 1 mps 665 mmHg 42%
    21:00 +23°C° 0 mm 1 mps 665 mmHg 42%
    22:00 +22°C° 0 mm 1 mps 665 mmHg 43%
    23:00 +21°C° 0 mm 1 mps 665 mmHg 47%
    Show more